Wind_Speed
13 12 13 14 11 12 23 25 17 4 3 7 13 16 13 14 29 27 13 17 21 20 19 17 15 18 16 15 14 14 13 12 11 11 11 12 12 11 11 10 10 9 10 11 12 12 13 15 15
15 14 16 15 14 19 23 26 21 8 15 11 3 9 15 17 29 21 16 21 20 21 21 20 17 18 17 16 16 15 14 12 11 10 10 11 12 12 12 11 11 11 10 11 12 13 13 15 15
18 17 18 14 23 33 16 5 8 5 4 10 7 8 12 14 23 21 19 22 25 23 22 22 20 19 18 17 16 15 14 13 12 10 9 9 10 11 12 13 12 12 12 12 13 14 14 14 15
20 20 22 25 29 29 18 13 8 6 4 11 12 14 16 20 17 15 21 24 26 27 25 25 22 23 20 18 17 16 15 14 13 12 11 9 9 9 10 12 13 13 13 13 14 15 15 15 17
23 24 28 30 39 33 25 21 16 9 6 7 12 23 15 17 14 16 21 26 27 30 29 27 25 24 22 20 18 16 15 14 13 11 11 10 9 8 8 9 11 12 13 13 13 14 15 15 16
25 28 26 40 40 34 29 22 17 12 11 12 17 21 20 14 15 16 22 23 25 31 33 30 27 25 24 22 20 18 16 15 13 12 11 10 9 9 8 6 7 9 10 10 11 11 11 12 13
33 32 40 39 41 38 27 23 21 13 14 17 23 28 18 14 16 16 16 17 24 29 32 31 30 27 26 25 23 20 17 15 14 12 11 10 9 8 8 7 6 5 6 6 7 8 8 8 7
33 35 43 45 43 38 28 22 19 17 15 22 27 33 19 16 17 15 17 20 22 28 29 33 31 31 30 28 25 22 19 17 16 13 12 10 10 9 9 8 7 5 4 4 4 4 5 4 4
33 39 51 50 45 44 25 21 23 18 13 10 22 32 20 16 18 16 17 22 24 24 26 29 31 33 32 30 28 25 22 20 18 15 13 11 10 9 9 9 8 7 5 4 4 3 3 2 2
40 49 56 49 45 38 37 23 23 19 14 11 23 30 26 20 20 17 14 17 22 21 21 24 28 32 33 33 31 28 26 23 20 17 14 13 11 11 10 10 9 9 7 6 4 4 4 4 4
46 58 52 51 44 40 39 31 29 20 21 13 16 26 24 26 25 21 16 12 17 21 21 21 24 28 32 34 32 30 27 24 21 18 16 15 13 11 10 10 9 9 9 8 6 6 6 6 6
49 55 52 52 47 43 41 37 35 29 23 11 19 22 26 29 25 23 20 18 18 19 21 21 20 22 29 32 33 31 28 25 22 19 18 15 13 11 11 11 11 10 9 9 8 8 8 8 8
51 56 53 51 50 47 45 42 40 34 26 13 13 25 26 24 20 22 19 18 20 20 20 20 19 22 26 31 32 31 28 25 22 20 19 17 14 12 12 12 12 11 10 9 9 9 10 10 10
54 54 56 52 53 48 48 48 41 38 28 19 12 23 28 24 22 24 23 20 18 21 22 22 20 21 24 28 31 31 29 27 24 22 21 19 16 15 13 13 13 12 11 10 10 11 12 12 12
55 58 52 59 56 52 47 56 52 42 35 25 13 12 27 25 23 21 23 22 22 19 25 25 22 22 23 25 28 30 30 29 27 25 24 21 19 17 15 14 13 13 12 12 12 12 13 12 13
40 53 56 69 52 54 46 61 54 47 43 34 24 23 25 32 25 22 24 21 22 21 24 26 26 24 24 25 27 29 31 30 29 28 27 25 22 19 17 16 14 14 13 13 12 12 13 11 12
37 40 59 72 62 51 40 60 57 49 50 40 32 26 28 29 29 25 25 25 23 20 25 29 28 26 24 25 26 29 31 32 31 30 29 28 25 22 18 17 16 16 15 13 13 13 13 12 13
40 47 49 66 67 55 46 59 61 53 51 46 38 28 29 32 32 29 27 25 22 19 18 25 27 30 26 26 28 29 31 35 34 33 31 30 28 25 21 20 20 19 17 15 15 14 15 15 15
45 44 46 72 40 41 58 65 64 55 56 51 45 36 31 36 32 30 30 28 25 24 23 21 23 24 27 27 27 28 27 30 34 33 33 32 30 27 25 22 22 20 18 16 17 17 18 17 17
47 53 55 72 33 33 51 54 69 64 56 56 49 42 35 35 39 36 34 34 33 30 29 28 26 26 23 23 25 25 24 26 31 33 33 33 32 30 28 24 23 21 20 20 20 19 19 19 18
45 47 61 62 43 37 39 39 52 47 65 56 56 52 46 43 43 42 41 39 36 37 36 36 32 29 27 24 23 26 27 27 30 33 34 34 33 31 29 27 26 24 22 22 21 21 19 18 18
45 41 49 59 44 35 33 32 52 49 58 60 59 59 60 52 45 44 43 43 42 41 38 37 38 35 32 32 29 25 30 29 27 27 28 29 30 30 30 29 28 28 24 24 23 22 20 21 20
60 51 36 44 43 42 44 28 40 50 54 56 63 66 62 57 51 47 46 45 44 43 43 37 37 41 37 36 34 28 26 30 30 29 28 29 30 30 31 30 30 30 28 25 25 25 24 23 22
33 31 40 37 29 31 49 38 38 45 48 61 66 66 66 62 55 49 47 44 45 43 44 44 42 42 43 41 38 35 28 26 27 29 32 30 29 30 31 32 31 31 31 28 28 28 27 25 25
30 29 11 13 14 17 53 37 56 46 52 61 63 66 65 61 57 51 42 43 43 45 47 48 47 48 46 43 40 38 34 34 30 26 25 26 31 33 32 33 32 32 32 32 31 31 30 29 28
28 46 19 10 6 15 38 30 79 71 36 59 55 61 64 58 57 55 49 45 45 42 48 46 51 50 47 46 41 38 35 38 38 35 32 30 28 29 34 34 35 34 34 35 33 33 34 33 31
25 37 53 41 37 10 17 28 56 59 62 45 49 44 57 62 60 56 52 49 52 50 48 51 48 45 47 49 45 44 42 41 43 40 37 35 30 27 30 36 35 35 36 37 37 35 35 35 34
25 14 23 24 16 12 10 47 60 48 54 61 59 47 45 47 52 53 53 53 54 48 50 49 48 48 48 50 51 48 45 41 40 42 41 38 33 29 30 29 34 39 39 39 42 41 37 37 37
17 35 19 20 27 9 4 7 33 36 46 48 56 61 43 50 50 47 44 46 51 50 45 51 52 51 51 53 57 54 51 47 47 44 43 40 37 33 33 32 33 37 40 42 43 45 42 40 40
19 17 18 7 5 10 4 5 12 11 23 27 22 45 58 56 49 46 53 46 44 50 54 56 58 59 56 58 54 57 54 51 50 45 42 42 40 38 35 35 37 38 38 43 44 46 47 45 43
Wind_Direction
233 227 225 217 215 224 235 236 240 209 339 333 307 224 226 220 193 194 218 172 178 171 163 168 166 164 169 160 155 151 145 140 133 120 110 102 99 97 98 100 101 103 104 102 99 93 88 83 81
232 221 221 219 225 225 240 237 231 233 286 275 233 231 204 203 203 211 195 171 183 180 170 169 173 171 173 170 163 157 154 151 140 126 113 104 98 97 96 99 103 102 99 98 97 95 89 84 83
234 221 217 221 229 229 232 234 200 223 308 213 182 185 193 201 190 209 199 193 177 186 180 177 178 177 180 181 175 167 160 153 147 138 129 118 109 105 104 101 99 99 100 98 96 91 88 85 82
231 220 219 227 231 236 220 148 133 172 160 185 222 216 196 179 178 201 192 198 181 186 189 185 184 183 187 189 186 182 176 165 157 150 142 134 125 118 115 110 105 99 96 94 92 89 88 85 83
227 223 222 236 236 238 228 216 249 227 230 170 218 228 244 226 195 183 198 193 186 187 194 192 193 189 193 196 195 192 187 183 175 166 158 150 140 133 126 120 118 114 108 103 97 93 92 89 85
223 222 228 235 240 239 235 235 245 247 266 221 220 227 244 252 194 176 188 196 194 192 196 197 200 200 200 201 201 198 196 192 190 182 178 172 163 151 136 132 134 127 123 117 110 104 98 92 90
228 226 233 239 246 246 233 236 234 258 253 228 229 226 232 225 201 186 193 196 197 194 202 203 205 208 208 206 204 202 201 201 201 194 194 187 182 172 159 151 143 142 140 133 128 126 116 105 97
232 231 237 238 241 245 238 235 232 241 247 230 226 222 230 227 207 196 201 201 197 197 197 206 210 213 213 209 206 205 206 207 208 206 204 204 194 188 184 177 166 159 164 168 163 155 144 133 112
230 234 238 236 237 238 244 228 215 223 248 228 234 224 233 232 213 210 205 208 206 200 200 205 213 217 218 214 209 206 209 210 212 213 213 212 209 202 201 192 189 182 191 199 202 199 190 172 162
228 234 239 240 240 241 239 226 194 224 222 211 224 222 227 230 222 222 223 213 209 208 208 213 214 220 221 219 214 211 213 215 217 218 218 216 218 213 211 206 201 199 196 205 216 229 231 231 229
229 237 240 244 246 245 241 224 228 248 211 202 219 216 224 225 222 222 220 223 220 220 229 234 227 220 222 222 219 215 217 219 219 220 219 221 222 224 221 215 212 211 209 208 216 229 238 244 248
236 238 242 246 245 246 242 233 228 238 205 202 213 225 244 221 215 211 210 219 216 231 232 235 232 226 220 221 223 222 221 222 222 223 226 226 225 224 226 222 223 229 229 222 224 235 241 246 249
236 240 240 246 247 243 249 241 240 228 198 194 204 220 219 212 209 211 218 220 229 232 233 227 229 222 220 219 220 222 223 224 224 225 228 231 226 224 229 229 233 236 240 241 242 247 254 254 252
235 242 245 244 245 246 248 240 248 212 198 209 221 215 218 233 215 217 219 219 222 230 231 228 226 218 220 217 219 221 222 224 225 226 228 230 229 226 231 233 233 242 245 247 254 262 263 262 260
239 243 243 243 241 240 246 252 237 208 208 211 214 214 214 220 222 219 228 231 233 233 230 229 228 225 222 218 218 222 224 225 226 226 230 230 231 230 232 232 235 236 244 250 255 260 262 267 275
244 244 248 237 240 236 241 247 229 214 216 215 213 221 225 225 223 220 223 216 223 222 235 229 230 230 227 225 225 224 226 227 228 228 230 232 232 229 236 235 236 236 240 245 250 252 256 266 271
231 236 238 244 233 235 234 239 232 220 223 214 220 224 223 218 212 201 208 217 222 227 230 234 234 233 232 232 228 229 229 230 229 228 228 232 233 232 228 237 234 239 239 242 248 250 255 261 263
229 232 237 245 238 231 230 237 239 229 228 220 223 220 222 225 213 207 208 217 226 231 233 232 237 235 232 233 226 230 230 228 227 227 227 230 232 232 231 227 232 236 238 240 243 246 250 253 257
239 233 240 244 246 236 235 237 238 237 233 223 222 224 224 231 225 219 212 219 226 232 234 236 223 222 228 233 232 231 233 228 225 223 225 230 231 232 231 230 229 237 238 239 242 243 249 252 256
242 232 240 244 245 240 241 241 243 243 235 226 222 226 223 230 230 225 222 220 225 232 240 245 239 230 231 237 240 240 238 232 229 230 230 229 231 230 232 231 234 239 240 237 241 244 249 253 257
241 237 239 240 246 246 245 249 245 242 235 233 226 224 225 223 225 226 228 228 229 233 239 245 247 244 235 237 241 242 235 230 232 234 236 230 228 232 234 233 234 236 242 244 243 246 248 253 255
249 226 238 239 238 247 235 246 243 242 240 234 225 223 223 222 220 223 228 229 230 235 240 243 247 248 243 239 241 244 245 240 239 241 239 236 235 232 234 236 235 237 237 245 245 244 248 248 246
248 251 250 238 240 241 242 245 245 238 237 232 228 223 226 226 223 220 222 227 228 234 240 241 245 246 244 244 243 246 249 248 246 243 241 241 240 237 236 238 237 238 235 239 239 241 243 247 246
250 246 239 241 241 233 230 233 247 229 230 234 226 225 226 231 231 228 227 227 229 231 237 241 242 246 244 241 243 245 244 242 245 249 250 246 240 241 240 241 241 241 237 236 239 239 245 246 246
229 232 230 236 219 234 223 219 236 232 231 233 233 228 228 229 231 230 218 224 228 229 231 238 242 243 243 242 245 246 245 247 248 249 252 253 252 244 243 244 244 244 241 238 238 239 244 248 248
249 217 212 224 243 223 219 211 240 231 229 239 240 233 234 233 234 235 234 230 235 231 231 238 239 243 245 245 246 247 249 251 253 250 249 254 258 258 249 248 247 246 242 238 238 240 242 243 245
263 222 225 231 261 259 208 206 240 235 237 232 231 234 233 234 235 235 234 241 242 235 234 236 238 241 246 245 246 247 246 250 253 254 253 253 255 263 257 248 247 248 246 239 237 239 243 242 242
240 245 195 212 239 245 211 194 225 221 227 232 224 221 224 228 233 237 239 239 235 237 237 238 242 244 249 249 246 247 249 251 254 253 252 253 253 261 264 260 253 248 246 242 237 237 238 239 241
327 247 259 204 208 220 244 237 225 224 233 238 234 226 221 221 223 226 230 233 233 239 239 239 244 248 249 250 245 245 250 250 249 250 251 252 247 254 258 259 263 254 247 244 239 237 238 237 240
3 356 9 283 181 219 224 243 121 208 231 233 230 234 233 230 226 224 228 229 231 236 238 241 247 250 248 251 248 244 246 247 251 251 254 252 248 252 252 256 255 254 250 244 242 239 239 239 240
Height
3139 3140 3141 3142 3147 3141 3137 3137 3139 3140 3142 3142 3142 3141 3143 3145 3144 3150 3150 3151 3153 3154 3156 3159 3162 3165 3168 3168 3170 3171 3172 3174 3174 3175 3175 3176 3176 3176 3176 3177 3178 3178 3178 3178 3178 3178 3178 3178 3178
3136 3137 3140 3139 3140 3136 3133 3134 3137 3140 3141 3140 3139 3141 3142 3142 3145 3148 3149 3149 3153 3153 3155 3158 3162 3165 3168 3170 3172 3173 3174 3174 3175 3176 3177 3177 3178 3178 3179 3180 3180 3180 3180 3181 3180 3180 3180 3179 3180
3134 3135 3137 3136 3132 3128 3132 3132 3136 3139 3140 3139 3140 3141 3143 3142 3144 3146 3148 3149 3150 3153 3156 3158 3161 3165 3168 3171 3173 3174 3175 3176 3177 3178 3179 3180 3181 3182 3182 3182 3182 3182 3182 3182 3182 3182 3181 3182 3182
3132 3133 3134 3128 3123 3126 3132 3132 3133 3135 3139 3139 3141 3142 3142 3142 3144 3146 3147 3148 3149 3152 3156 3158 3160 3164 3168 3171 3173 3175 3176 3177 3179 3180 3181 3182 3183 3184 3184 3184 3184 3185 3185 3184 3184 3184 3184 3184 3184
3128 3128 3127 3121 3118 3122 3128 3130 3132 3133 3135 3139 3140 3140 3141 3141 3142 3144 3146 3147 3149 3151 3155 3158 3161 3163 3167 3170 3172 3175 3176 3178 3179 3180 3182 3183 3184 3185 3186 3186 3186 3186 3186 3187 3186 3186 3187 3187 3187
3124 3124 3120 3116 3115 3119 3124 3128 3130 3131 3131 3134 3136 3138 3140 3140 3141 3143 3145 3148 3149 3151 3154 3157 3160 3163 3166 3169 3172 3174 3176 3178 3179 3180 3182 3183 3185 3186 3186 3187 3188 3188 3188 3189 3188 3189 3189 3189 3189
3118 3118 3112 3113 3112 3114 3120 3126 3128 3130 3129 3131 3133 3135 3137 3137 3139 3142 3144 3146 3148 3150 3153 3156 3158 3161 3164 3167 3170 3173 3175 3177 3179 3180 3182 3183 3184 3186 3187 3188 3188 3189 3189 3190 3190 3190 3190 3191 3191
3114 3113 3106 3105 3107 3106 3116 3121 3125 3127 3127 3127 3128 3131 3135 3135 3136 3139 3141 3144 3146 3149 3151 3154 3156 3159 3162 3165 3169 3172 3174 3176 3178 3180 3181 3183 3184 3185 3186 3188 3189 3189 3190 3191 3192 3192 3192 3192 3192
3109 3106 3095 3097 3103 3104 3112 3116 3120 3122 3123 3122 3125 3128 3133 3133 3135 3136 3139 3141 3143 3146 3148 3151 3154 3157 3160 3163 3166 3169 3172 3174 3177 3179 3180 3182 3184 3185 3186 3187 3188 3189 3190 3191 3192 3192 3192 3193 3193
3099 3094 3086 3095 3101 3104 3109 3112 3115 3118 3118 3120 3122 3126 3128 3131 3132 3133 3136 3138 3142 3144 3146 3148 3151 3154 3157 3161 3163 3167 3169 3172 3175 3178 3180 3181 3183 3184 3185 3186 3187 3189 3189 3191 3191 3192 3192 3193 3193
3090 3078 3090 3091 3098 3103 3103 3106 3108 3110 3112 3116 3117 3122 3124 3127 3129 3131 3134 3137 3139 3142 3144 3146 3148 3151 3154 3158 3161 3164 3167 3170 3174 3176 3178 3180 3182 3183 3184 3186 3187 3188 3189 3189 3190 3191 3191 3192 3193
3081 3079 3084 3088 3093 3097 3097 3101 3102 3105 3109 3111 3112 3116 3121 3122 3125 3128 3130 3133 3136 3139 3141 3143 3145 3147 3151 3155 3158 3162 3165 3168 3172 3175 3177 3179 3181 3182 3183 3185 3186 3187 3188 3189 3190 3190 3190 3191 3191
3075 3075 3079 3081 3085 3088 3094 3092 3096 3098 3104 3106 3108 3109 3116 3119 3122 3125 3128 3130 3132 3135 3138 3140 3142 3144 3147 3151 3155 3159 3163 3167 3170 3173 3175 3177 3179 3181 3182 3183 3185 3186 3187 3188 3189 3189 3190 3190 3190
3069 3070 3071 3074 3075 3082 3086 3083 3091 3091 3099 3100 3101 3104 3109 3115 3117 3120 3122 3126 3129 3132 3134 3137 3140 3142 3145 3148 3152 3156 3160 3164 3167 3170 3172 3175 3177 3179 3180 3182 3183 3185 3186 3187 3188 3189 3189 3189 3190
3060 3060 3064 3061 3066 3071 3080 3071 3075 3086 3091 3093 3095 3100 3104 3109 3111 3115 3119 3123 3126 3129 3131 3134 3137 3139 3142 3145 3149 3153 3157 3161 3164 3167 3170 3172 3175 3176 3178 3179 3181 3183 3184 3185 3186 3187 3187 3188 3188
3054 3057 3051 3043 3061 3063 3075 3058 3067 3079 3082 3086 3089 3092 3097 3102 3106 3110 3114 3118 3122 3124 3127 3130 3133 3136 3139 3142 3145 3149 3152 3156 3160 3163 3166 3168 3171 3174 3175 3178 3179 3180 3181 3183 3183 3184 3185 3186 3186
3047 3040 3038 3033 3049 3057 3063 3054 3058 3071 3073 3078 3082 3087 3091 3095 3099 3104 3108 3113 3117 3121 3123 3125 3128 3131 3135 3138 3141 3144 3148 3151 3156 3158 3161 3164 3167 3170 3172 3175 3177 3178 3179 3180 3181 3182 3183 3184 3184
3031 3033 3031 3021 3035 3052 3054 3045 3051 3061 3066 3071 3076 3080 3083 3088 3090 3098 3102 3107 3111 3115 3118 3121 3124 3127 3130 3133 3136 3138 3142 3145 3150 3154 3157 3160 3163 3166 3168 3171 3173 3174 3176 3178 3179 3180 3181 3181 3182
3030 3032 3027 3016 3036 3044 3042 3040 3040 3048 3056 3061 3066 3071 3076 3080 3087 3091 3096 3101 3106 3109 3112 3116 3119 3122 3124 3128 3130 3133 3135 3140 3144 3148 3152 3155 3158 3161 3164 3167 3169 3171 3173 3175 3176 3177 3178 3179 3179
3020 3020 3018 3012 3029 3037 3033 3033 3032 3041 3045 3053 3059 3063 3067 3075 3079 3083 3087 3093 3097 3102 3106 3110 3114 3118 3121 3124 3128 3130 3134 3136 3141 3144 3147 3151 3153 3156 3159 3162 3165 3168 3170 3171 3173 3174 3175 3175 3176
3006 3009 3010 3010 3025 3029 3030 3026 3026 3026 3034 3044 3050 3053 3060 3064 3069 3074 3078 3084 3090 3093 3098 3103 3107 3111 3116 3120 3122 3125 3129 3130 3133 3138 3141 3144 3148 3151 3155 3157 3159 3163 3165 3167 3168 3170 3170 3170 3171
2996 3004 3004 3010 3020 3017 3019 3007 3014 3018 3021 3029 3037 3042 3046 3053 3061 3067 3070 3075 3082 3086 3091 3096 3100 3105 3110 3113 3117 3120 3123 3126 3131 3134 3138 3141 3143 3146 3149 3151 3154 3157 3159 3162 3164 3165 3166 3166 3167
2985 2996 2998 3002 3007 3009 3008 3009 2998 3008 3011 3018 3022 3028 3034 3041 3050 3057 3062 3067 3075 3081 3083 3087 3092 3097 3102 3106 3110 3115 3118 3121 3125 3129 3132 3135 3138 3140 3143 3145 3149 3150 3153 3156 3158 3159 3161 3162 3163
2986 2990 2993 2993 2993 2986 2988 3003 2984 2993 2997 3001 3010 3018 3025 3032 3040 3048 3055 3061 3065 3074 3078 3079 3082 3087 3094 3099 3102 3107 3112 3116 3119 3123 3126 3129 3132 3134 3136 3139 3142 3144 3147 3149 3152 3153 3155 3157 3158
2978 2985 2986 2983 2973 2967 2972 2988 2966 2980 2986 2992 3002 3010 3017 3024 3031 3038 3045 3050 3056 3062 3068 3071 3073 3077 3085 3090 3094 3098 3103 3108 3113 3117 3120 3123 3126 3128 3131 3133 3135 3138 3140 3142 3145 3147 3149 3150 3152
2968 2971 2970 2969 2957 2959 2958 2963 2935 2973 2981 2987 2994 3003 3010 3015 3022 3028 3035 3041 3047 3053 3058 3062 3065 3068 3074 3080 3085 3091 3095 3099 3103 3108 3113 3116 3118 3121 3124 3126 3128 3131 3133 3135 3137 3140 3141 3143 3145
2960 2957 2957 2969 2953 2951 2942 2953 2949 2967 2973 2980 2986 2991 2997 3003 3010 3017 3025 3032 3035 3042 3046 3051 3056 3060 3064 3069 3076 3081 3085 3090 3094 3099 3104 3108 3111 3113 3114 3117 3119 3122 3125 3127 3129 3131 3134 3136 3137
2956 2953 2957 2955 2954 2953 2933 2934 2924 2949 2955 2962 2975 2980 2987 2994 3001 3007 3013 3019 3025 3031 3037 3041 3046 3051 3055 3059 3064 3071 3075 3080 3085 3088 3094 3099 3103 3104 3107 3108 3110 3112 3115 3118 3120 3122 3125 3128 3130
2952 2947 2944 2940 2942 2942 2942 2930 2932 2945 2950 2958 2964 2973 2978 2986 2991 2996 3002 3008 3015 3020 3026 3031 3035 3040 3045 3048 3054 3060 3064 3069 3073 3078 3085 3090 3093 3096 3099 3101 3102 3102 3105 3108 3110 3113 3116 3119 3122
2950 2945 2942 2935 2931 2932 2934 2933 2933 2940 2944 2949 2954 2959 2969 2975 2980 2985 2991 2998 3004 3009 3015 3019 3023 3028 3032 3038 3043 3047 3052 3057 3061 3069 3075 3080 3083 3086 3089 3092 3093 3094 3095 3098 3100 3103 3107 3109 3112